World > North America > United States > Texas   City of Dalhart, TX
Hourly regional weather for Dalhart, TexasDalhart, Texas Regional Hourly Weather

Dalhart, Texas Regional Weather

regional weather dalhart, txHOURLY REGIONAL WEATHER FOR DALHART, TX
Lat: 36.06N, Lon: 102.51W 
Web Search
Dalhart Weather Warning NWS WEATHER ALERT FOR THE DALHART, TX AREA - Issued: 310 AM CST Tue Dec 7 2021 Dalhart Weather Warning  

Ads allow us to feed your daily addiction for the world's greatest weather information. We're determined to offer quality sponsors, in the least annoying way possible.

Feedback


°F Click to change Dalhart hourly weather to Imperial units.Click to change Dalhart hourly weather to Metric units. °C
Dalhart Weather Map
UTC Time: 12/7/2021, 15:57
Your Time:

Dalhart, TX Regional Weather

Expires:202112071600;;059086
ASUS44 KSJT 071515
RWRSJT
WEST CENTRAL TEXAS REGIONAL WEATHER ROUNDUP
NATIONAL WEATHER SERVICE SAN ANGELO TX
900 AM CST TUE DEC 07 2021

NOTE: "FAIR" INDICATES FEW OR NO CLOUDS BELOW 12,000 FEET WITH NO
SIGNIFICANT WEATHER AND/OR OBSTRUCTIONS TO VISIBILITY.


TXZ001-004-007-008-010-012-014-016-OKZ002-071600-
TEXAS PANHANDLE/OKLAHOMA PANHANDLE
  
CITY           SKY/WX    TMP DP  RH WIND       PRES   REMARKS
AMARILLO       CLOUDY    35  14  42 SW10      29.88S WCI  27          
BORGER         PTSUNNY   37  13  37 S7        29.89S WCI  32          
CANADIAN       MOSUNNY   32  12  43 S8        29.96R WCI  25          
DALHART        PTSUNNY   36  14  40 S5        29.88R WCI  32          
DUMAS          CLOUDY    37  12  36 SW7       29.88R WCI  31          
GUYMON         NOT AVBL                                               
HEREFORD       CLOUDY    38  17  42 SW7       29.91S WCI  32          
PAMPA          PTSUNNY   33  13  44 S12       29.90  WCI  25          
PERRYTON       MOSUNNY   31  11  42 S6        29.90R WCI  25          
$$


SKY/WX - Weather  TMP - Temperature  DP - Dew Point  RH - Relative Humidity
WIND - Wind Direction/Speed PRES - Barometric Pressure VSB - Visibility
WCI - Wind Chill Index E13G22 Wind - East Wind 13 mph/Gusts of 22 mph